| time (UTC) | temp F | wind direction | speed MPH | gust MPH | rain 1hr in | rain 24hr in | rain mn in | humidity % | barometer mb |
| 20260902041535 | 77 | 177 | 0.0 | 0.0 | 0.00 | 0.00 | 0.00 | 74 | 1016.0 |
| 20260902040033 | 77 | 177 | 0.0 | 0.0 | 0.00 | 0.00 | 0.00 | 73 | 1015.7 |
| 20260902034531 | 77 | 177 | 0.0 | 0.0 | 0.00 | 0.00 | 0.00 | 73 | 1015.4 |
| 20260902033039 | 78 | 177 | 0.0 | 0.0 | 0.00 | 0.00 | 0.00 | 73 | 1015.1 |
| 20260902031533 | 78 | 177 | 0.0 | 0.0 | 0.00 | 0.00 | 0.00 | 72 | 1015.0 |
| 20260902030031 | 79 | 177 | 0.0 | 0.0 | 0.00 | 0.00 | 0.00 | 71 | 1014.9 |
| 20260902024530 | 80 | 177 | 0.0 | 0.0 | 0.00 | 0.00 | 0.00 | 69 | 1014.8 |
| 20260902023031 | 81 | 177 | 0.0 | 0.0 | 0.00 | 0.00 | 0.00 | 68 | 1014.9 |
| 20260902021534 | 82 | 177 | 0.0 | 0.0 | 0.00 | 0.00 | 0.00 | 66 | 1015.1 |
| 20260902020028 | 83 | 177 | 0.0 | 2.0 | 0.00 | 0.00 | 0.00 | 64 | 1015.0 |
| 20260902014536 | 84 | 177 | 0.0 | 0.0 | 0.00 | 0.00 | 0.00 | 61 | 1015.1 |
| 20260902013027 | 85 | 182 | 0.0 | 2.0 | 0.00 | 0.00 | 0.00 | 59 | 1014.8 |
| 20260902011535 | 85 | 183 | 0.0 | 2.0 | 0.00 | 0.00 | 0.00 | 59 | 1014.5 |
| 20260902010042 | 85 | 192 | 0.0 | 2.0 | 0.00 | 0.00 | 0.00 | 60 | 1014.4 |
| 20260902004532 | 85 | 202 | 0.0 | 3.0 | 0.00 | 0.00 | 0.00 | 60 | 1014.4 |
| 20260902003025 | 86 | 203 | 0.0 | 3.0 | 0.00 | 0.00 | 0.00 | 59 | 1014.2 |
| 20260902001525 | 86 | 222 | 0.0 | 3.0 | 0.00 | 0.00 | 0.00 | 59 | 1013.9 |
| 20260902000042 | 87 | 192 | 0.0 | 2.0 | 0.00 | 0.00 | 0.00 | 61 | 1013.7 |
| 20260901234549 | 88 | 188 | 0.0 | 2.0 | 0.00 | 0.00 | 0.00 | 59 | 1013.6 |
| 20260901233023 | 88 | 183 | 0.0 | 2.0 | 0.00 | 0.00 | 0.00 | 58 | 1013.6 |
| 20260901231536 | 89 | 195 | 0.0 | 4.0 | 0.00 | 0.00 | 0.00 | 57 | 1013.6 |
| 20260901230023 | 89 | 227 | 0.0 | 2.0 | 0.00 | 0.00 | 0.00 | 58 | 1013.5 |
| 20260901224529 | 91 | 232 | 0.0 | 2.0 | 0.00 | 0.00 | 0.00 | 57 | 1013.7 |
| 20260901223033 | 91 | 192 | 0.0 | 2.0 | 0.00 | 0.00 | 0.00 | 56 | 1013.7 |
| 20260901221527 | 91 | 202 | 0.0 | 2.0 | 0.00 | 0.00 | 0.00 | 55 | 1013.6 |
| 20260901220020 | 91 | 226 | 1.0 | 2.0 | 0.00 | 0.00 | 0.00 | 53 | 1013.6 |
| 20260901214518 | 92 | 336 | 2.0 | 5.0 | 0.00 | 0.00 | 0.00 | 51 | 1013.6 |
| 20260901213018 | 93 | 206 | 1.0 | 8.0 | 0.00 | 0.00 | 0.00 | 51 | 1013.6 |
| 20260901211518 | 93 | 253 | 1.0 | 8.0 | 0.00 | 0.00 | 0.00 | 51 | 1013.7 |
| 20260901210017 | 92 | 242 | 1.0 | 6.0 | 0.00 | 0.00 | 0.00 | 51 | 1013.9 |
| 20260901204517 | 92 | 207 | 3.0 | 9.0 | 0.00 | 0.00 | 0.00 | 49 | 1013.7 |
| 20260901203022 | 92 | 202 | 1.0 | 9.0 | 0.00 | 0.00 | 0.00 | 50 | 1013.7 |
| 20260901201516 | 93 | 163 | 1.0 | 6.0 | 0.00 | 0.00 | 0.00 | 48 | 1013.6 |
| 20260901200032 | 94 | 302 | 1.0 | 8.0 | 0.00 | 0.00 | 0.00 | 47 | 1013.7 |
| 20260901194512 | 94 | 205 | 2.0 | 10.0 | 0.00 | 0.00 | 0.00 | 46 | 1013.8 |
| 20260901193011 | 95 | 220 | 1.0 | 6.0 | 0.00 | 0.00 | 0.00 | 46 | 1014.0 |
| 20260901191513 | 94 | 195 | 2.0 | 7.0 | 0.00 | 0.00 | 0.00 | 47 | 1014.3 |
| 20260901190017 | 93 | 188 | 1.0 | 8.0 | 0.00 | 0.00 | 0.00 | 50 | 1014.5 |
| 20260901184503 | 93 | 271 | 1.0 | 7.0 | 0.00 | 0.00 | 0.00 | 52 | 1014.8 |
| 20260901183008 | 94 | 234 | 0.0 | 5.0 | 0.00 | 0.00 | 0.00 | 53 | 1015.0 |
| 20260901181600 | 93 | 317 | 1.0 | 6.0 | 0.00 | 0.00 | 0.00 | 53 | 1015.0 |
| 20260901180055 | 92 | 195 | 1.0 | 8.0 | 0.00 | 0.00 | 0.00 | 54 | 1015.0 |
| 20260901174553 | 91 | 207 | 2.0 | 7.0 | 0.00 | 0.00 | 0.00 | 54 | 1014.9 |
| 20260901173106 | 90 | 241 | 0.0 | 4.0 | 0.00 | 0.00 | 0.00 | 57 | 1015.0 |
| 20260901171552 | 90 | 348 | 0.0 | 7.0 | 0.00 | 0.00 | 0.00 | 57 | 1015.0 |
| 20260901170053 | 90 | 259 | 0.0 | 4.0 | 0.00 | 0.00 | 0.00 | 56 | 1015.3 |
| 20260901164602 | 90 | 179 | 0.0 | 3.0 | 0.00 | 0.00 | 0.00 | 59 | 1015.2 |
| 20260901163045 | 90 | 333 | 1.0 | 4.0 | 0.00 | 0.00 | 0.00 | 58 | 1015.4 |
| 20260901161543 | 90 | 201 | 1.0 | 4.0 | 0.00 | 0.00 | 0.00 | 58 | 1015.6 |
| 20260901160044 | 90 | 232 | 0.0 | 3.0 | 0.00 | 0.00 | 0.00 | 60 | 1015.6 |
| 20260901154542 | 89 | 168 | 1.0 | 5.0 | 0.00 | 0.00 | 0.00 | 61 | 1015.7 |
| 20260901153040 | 89 | 213 | 0.0 | 4.0 | 0.00 | 0.00 | 0.00 | 61 | 1015.7 |
| 20260901151533 | 88 | 201 | 1.0 | 3.0 | 0.00 | 0.00 | 0.00 | 63 | 1015.9 |
| 20260901150028 | 86 | 103 | 0.0 | 3.0 | 0.00 | 0.00 | 0.00 | 66 | 1016.0 |
| 20260901144534 | 85 | 101 | 0.0 | 2.0 | 0.00 | 0.00 | 0.00 | 71 | 1016.0 |
| 20260901143020 | 83 | 92 | 0.0 | 2.0 | 0.00 | 0.00 | 0.00 | 73 | 1016.2 |
| 20260901141517 | 81 | 104 | 0.0 | 2.0 | 0.00 | 0.00 | 0.00 | 76 | 1016.3 |
| 20260901140013 | 79 | 102 | 0.0 | 2.0 | 0.00 | 0.00 | 0.00 | 79 | 1016.4 |
| 20260901134510 | 78 | 100 | 0.0 | 2.0 | 0.00 | 0.00 | 0.00 | 80 | 1016.4 |
| 20260901133011 | 77 | 102 | 0.0 | 2.0 | 0.00 | 0.00 | 0.00 | 81 | 1016.5 |
| 20260901131508 | 77 | 104 | 0.0 | 2.0 | 0.00 | 0.00 | 0.00 | 81 | 1016.6 |
| 20260901130003 | 76 | 101 | 0.0 | 2.0 | 0.00 | 0.00 | 0.00 | 82 | 1016.6 |
| 20260901124501 | 76 | 102 | 0.0 | 2.0 | 0.00 | 0.00 | 0.00 | 83 | 1016.8 |
| 20260901123059 | 74 | 101 | 0.0 | 2.0 | 0.00 | 0.00 | 0.00 | 85 | 1016.8 |
| 20260901121612 | 73 | 101 | 0.0 | 2.0 | 0.00 | 0.00 | 0.00 | 87 | 1017.0 |
| 20260901120107 | 72 | 101 | 0.0 | 2.0 | 0.00 | 0.00 | 0.00 | 89 | 1016.9 |
| 20260901114602 | 71 | 100 | 0.0 | 1.0 | 0.00 | 0.00 | 0.00 | 91 | 1016.7 |
| 20260901113057 | 71 | 100 | 0.0 | 0.0 | 0.00 | 0.00 | 0.00 | 91 | 1016.5 |
| 20260901111606 | 71 | 100 | 0.0 | 0.0 | 0.00 | 0.00 | 0.00 | 91 | 1016.4 |
| 20260901110056 | 71 | 100 | 0.0 | 0.0 | 0.00 | 0.00 | 0.00 | 90 | 1016.3 |
| 20260901104554 | 72 | 100 | 0.0 | 0.0 | 0.00 | 0.00 | 0.00 | 89 | 1016.2 |
| 20260901103114 | 72 | 100 | 0.0 | 0.0 | 0.00 | 0.00 | 0.00 | 89 | 1016.1 |
| 20260901101556 | 72 | 100 | 0.0 | 0.0 | 0.00 | 0.00 | 0.00 | 90 | 1016.1 |
| 20260901100056 | 72 | 100 | 0.0 | 0.0 | 0.00 | 0.00 | 0.00 | 90 | 1016.0 |
| 20260901094552 | 72 | 101 | 0.0 | 2.0 | 0.00 | 0.00 | 0.00 | 90 | 1016.1 |
| 20260901093124 | 72 | 100 | 0.0 | 2.0 | 0.00 | 0.00 | 0.00 | 90 | 1016.1 |
| 20260901091602 | 72 | 100 | 0.0 | 0.0 | 0.00 | 0.00 | 0.00 | 90 | 1016.1 |
| 20260901090050 | 72 | 100 | 0.0 | 0.0 | 0.00 | 0.00 | 0.00 | 90 | 1016.0 |
| 20260901084549 | 71 | 100 | 0.0 | 2.0 | 0.00 | 0.00 | 0.00 | 90 | 1016.0 |
| 20260901083049 | 72 | 100 | 0.0 | 0.0 | 0.00 | 0.00 | 0.00 | 90 | 1016.2 |
| 20260901081546 | 72 | 100 | 0.0 | 0.0 | 0.00 | 0.00 | 0.00 | 89 | 1016.2 |
| 20260901080048 | 72 | 100 | 0.0 | 0.0 | 0.00 | 0.00 | 0.00 | 89 | 1016.2 |
| 20260901074545 | 72 | 100 | 0.0 | 0.0 | 0.00 | 0.00 | 0.00 | 89 | 1016.3 |
| 20260901073041 | 73 | 100 | 0.0 | 0.0 | 0.00 | 0.00 | 0.00 | 88 | 1016.2 |
| 20260901071542 | 73 | 100 | 0.0 | 0.0 | 0.00 | 0.00 | 0.00 | 88 | 1016.2 |
| 20260901070044 | 73 | 100 | 0.0 | 2.0 | 0.00 | 0.00 | 0.00 | 88 | 1016.3 |
| 20260901064540 | 73 | 100 | 0.0 | 2.0 | 0.00 | 0.00 | 0.00 | 88 | 1016.5 |
| 20260901063039 | 73 | 101 | 0.0 | 2.0 | 0.00 | 0.00 | 0.00 | 88 | 1016.5 |
| 20260901061536 | 73 | 101 | 0.0 | 0.0 | 0.00 | 0.00 | 0.00 | 87 | 1016.5 |
| 20260901060033 | 74 | 101 | 0.0 | 1.0 | 0.00 | 0.00 | 0.00 | 87 | 1016.8 |
| 20260901054531 | 74 | 101 | 0.0 | 2.0 | 0.00 | 0.00 | 0.00 | 87 | 1016.8 |
| 20260901053031 | 74 | 101 | 0.0 | 2.0 | 0.00 | 0.00 | 0.00 | 86 | 1016.8 |
| 20260901051528 | 75 | 101 | 0.0 | 2.0 | 0.00 | 0.00 | 0.00 | 85 | 1016.9 |
| 20260901050027 | 75 | 101 | 0.0 | 2.0 | 0.00 | 0.00 | 0.00 | 85 | 1017.0 |
| 20260901044525 | 75 | 101 | 0.0 | 2.0 | 0.00 | 0.00 | 0.00 | 86 | 1017.0 |
| 20260901043024 | 75 | 101 | 0.0 | 2.0 | 0.00 | 0.00 | 0.00 | 87 | 1017.1 |